• Currently

    Reported at Minneapolis, Minneapolis-St. Paul International Airport, MN
    3:53 AM CST SUN MAR 26 2017
  • 37°F3°C
  • Drizzle
    Drizzle
  • Feels Like:33°F0°CDew Point:34°F1°CHumidity:87% Winds:E 7 mph 11 kph
    Pressure:29.94 in1014 hPaVisibility:7.00 miles11263.00 meters
Time Weather Temp Dew Point
Humidity Winds Visibility Pressure Precipitation
1 hr 24 hr
Sunday, March 26
23:53 23:53 Cloudy With Light Rain Cloudy With Light Rain 38°F3°C 36°F2°C 93% ENE 9 mphENE 15 kph 5.0 miles8.0 km 30.03 in1017 hPa 0.02 in12.90 mm --
23:29 23:29 Cloudy With Light Drizzle Cloudy With Light Drizzle 39°F4°C 35°F2°C 86% ENE 9 mphENE 15 kph 3.0 miles4.8 km 30.03 in1017 hPa 0.00 in0.03 mm --
23:17 23:17 Cloudy With Light Drizzle Cloudy With Light Drizzle 39°F4°C 35°F2°C 86% ENE 10 mphENE 17 kph 5.0 miles8.0 km 30.03 in1017 hPa 0.00 in0.03 mm --
22:53 22:53 Cloudy With Light Drizzle Cloudy With Light Drizzle 40°F4°C 35°F2°C 83% ENE 9 mphENE 15 kph 4.0 miles6.4 km 30.03 in1017 hPa 0.00 in0.03 mm --
21:53 21:53 Cloudy Cloudy 40°F4°C 34°F1°C 79% ENE 9 mphENE 15 kph 10.0 miles16.1 km 30.06 in1018 hPa 0.00 in0.00 mm --
21:03 21:03 Cloudy Cloudy 39°F4°C 34°F1°C 81% E 12 mphE 19 kph 10.0 miles16.1 km 30.06 in1018 hPa 0.00 in0.00 mm --
20:53 20:53 Cloudy Cloudy 40°F4°C 34°F1°C 79% E 10 mphE 17 kph 10.0 miles16.1 km 30.06 in1018 hPa 0.00 in0.00 mm --
19:53 19:53 Cloudy Cloudy 40°F4°C 35°F2°C 83% ENE 9 mphENE 15 kph 10.0 miles16.1 km 30.06 in1018 hPa 0.00 in0.00 mm --
18:53 18:53 Cloudy Cloudy 42°F6°C 33°F1°C 71% E 13 mphE 20 kph 9.0 miles14.5 km 30.06 in1018 hPa 0.00 in0.00 mm --
17:53 17:53 Cloudy Cloudy 43°F6°C 32°F0°C 65% ENE 13 mphENE 20 kph 10.0 miles16.1 km 30.06 in1018 hPa 0.00 in0.00 mm --
16:53 16:53 Cloudy Cloudy 43°F6°C 32°F0°C 65% ENE 12 mphENE 19 kph 10.0 miles16.1 km 30.06 in1018 hPa 0.00 in0.00 mm --
15:53 15:53 Cloudy Cloudy 42°F6°C 32°F0°C 68% ENE 16 mphENE 26 kph 10.0 miles16.1 km 30.09 in1019 hPa 0.00 in0.00 mm --
14:53 14:53 Cloudy Cloudy 42°F6°C 32°F0°C 68% ENE 15 mphENE 24 kph 10.0 miles16.1 km 30.09 in1019 hPa 0.00 in0.00 mm --
13:53 13:53 Cloudy Cloudy 42°F6°C 32°F0°C 68% ENE 16 mphENE 26 kph 10.0 miles16.1 km 30.12 in1020 hPa 0.00 in0.00 mm --
12:53 12:53 Cloudy Cloudy 41°F5°C 31°F-1°C 67% E 13 mphE 20 kph 10.0 miles16.1 km 30.15 in1021 hPa 0.00 in0.00 mm --
11:53 11:53 Cloudy Cloudy 40°F4°C 31°F-1°C 70% ENE 14 mphENE 22 kph 10.0 miles16.1 km 30.15 in1021 hPa 0.00 in0.00 mm --
10:53 10:53 Cloudy Cloudy 39°F4°C 31°F-1°C 73% NE 13 mphNE 20 kph 10.0 miles16.1 km 30.18 in1022 hPa 0.00 in0.00 mm --
09:53 09:53 Cloudy Cloudy 38°F3°C 30°F-1°C 73% ENE 13 mphENE 20 kph 10.0 miles16.1 km 30.18 in1022 hPa 0.00 in0.00 mm --
08:53 08:53 Cloudy Cloudy 37°F3°C 30°F-1°C 76% E 13 mphE 20 kph 10.0 miles16.1 km 30.18 in1022 hPa 0.00 in0.00 mm --
07:53 07:53 Cloudy Cloudy 37°F3°C 30°F-1°C 76% NE 13 mphNE 20 kph 10.0 miles16.1 km 30.18 in1022 hPa 0.00 in0.00 mm --
06:53 06:53 Cloudy Cloudy 37°F3°C 30°F-1°C 76% ENE 10 mphENE 17 kph 10.0 miles16.1 km 30.18 in1022 hPa 0.00 in0.00 mm --
05:53 05:53 Cloudy Cloudy 37°F3°C 30°F-1°C 76% ENE 12 mphENE 19 kph 10.0 miles16.1 km 30.15 in1021 hPa 0.00 in0.00 mm --
04:53 04:53 Cloudy Cloudy 37°F3°C 30°F-1°C 76% ENE 8 mphENE 13 kph 10.0 miles16.1 km 30.15 in1021 hPa 0.00 in0.00 mm --
03:53 03:53 Cloudy Cloudy 38°F3°C 31°F-1°C 76% NE 10 mphNE 17 kph 10.0 miles16.1 km 30.15 in1021 hPa 0.00 in0.00 mm --
02:53 02:53 Cloudy Cloudy 38°F3°C 31°F-1°C 76% ENE 12 mphENE 19 kph 10.0 miles16.1 km 30.18 in1022 hPa 0.00 in0.00 mm --
01:53 01:53 Cloudy Cloudy 38°F3°C 31°F-1°C 76% NE 9 mphNE 15 kph 10.0 miles16.1 km 30.18 in1022 hPa 0.00 in0.00 mm --
00:53 00:53 Cloudy Cloudy 39°F4°C 31°F-1°C 73% NE 9 mphNE 15 kph 10.0 miles16.1 km 30.18 in1022 hPa 0.00 in0.00 mm --